W0KHZ Weather Reports


Display with metric or nautical units.
time (UTC)temp
F
wind
direction
speed
MPH
gust
MPH
rain 1hr
in
rain 24hr
in
rain mn
in
humidity
%
barometer
mb
20260831214535 87 0.0 0.0 0.00 0.00 0.00 76 1039.3
20260831214032 87 160 0.0 2.0 0.00 0.00 0.00 76 1039.2
20260831213528 87 0.0 0.0 0.00 0.00 0.00 76 1039.2
20260831213024 87 160 0.0 1.0 0.00 0.00 0.00 76 1039.2
20260831212522 87 160 0.0 1.0 0.00 0.00 0.00 77 1039.3
20260831212019 86 0.0 0.0 0.00 0.00 0.00 77 1039.1
20260831211516 86 120 1.0 2.0 0.00 0.00 0.00 78 1039.3
20260831211054 86 167 0.0 1.0 0.00 0.00 0.00 78 1039.3
20260831210530 86 0.0 0.0 0.00 0.00 0.00 78 1039.2
20260831210027 86 0.0 0.0 0.00 0.00 0.00 77 1039.1
20260831205544 86 0.0 0.0 0.00 0.00 0.00 76 1038.9
20260831205021 86 0.0 0.0 0.00 0.00 0.00 76 1038.9
20260831204519 86 0.0 0.0 0.00 0.00 0.00 76 1038.8
20260831204016 87 0.0 0.0 0.00 0.00 0.00 76 1038.9
20260831203533 87 0.0 0.0 0.00 0.00 0.00 76 1038.8
20260831203029 87 0.0 0.0 0.00 0.00 0.00 76 1038.8
20260831202527 86 0.0 0.0 0.00 0.00 0.00 76 1038.8
20260831202024 86 0.0 0.0 0.00 0.00 0.00 76 1038.7
20260831201521 86 0.0 0.0 0.00 0.00 0.00 76 1038.5
20260831201018 86 0.0 0.0 0.00 0.00 0.00 76 1038.4
20260831200515 87 0.0 0.0 0.00 0.00 0.00 76 1038.5
20260831200033 86 0.0 0.0 0.00 0.00 0.00 76 1038.6
20260831195548 87 167 0.0 1.0 0.00 0.00 0.00 75 1038.4
20260831195025 87 167 0.0 2.0 0.00 0.00 0.00 74 1038.6
20260831194523 87 167 0.0 1.0 0.00 0.00 0.00 74 1038.8
20260831194020 88 167 0.0 1.0 0.00 0.00 0.00 73 1038.7
20260831193517 89 167 0.0 2.0 0.00 0.00 0.00 72 1038.9
20260831193034 89 0.0 0.0 0.00 0.00 0.00 71 1039.0
20260831192630 90 0.0 0.0 0.00 0.00 0.00 70 1038.9
20260831192026 90 0.0 0.0 0.00 0.00 0.00 70 1038.7
20260831191524 91 167 0.0 1.0 0.00 0.00 0.00 69 1038.7
20260831191021 91 0.0 0.0 0.00 0.00 0.00 69 1038.6
20260831190517 91 0.0 0.0 0.00 0.00 0.00 69 1038.6
20260831190035 91 0.0 0.0 0.00 0.00 0.00 69 1038.5
20260831185532 91 0.0 0.0 0.00 0.00 0.00 68 1038.8
20260831185028 91 167 0.0 2.0 0.00 0.00 0.00 68 1038.8
20260831184545 91 0.0 0.0 0.00 0.00 0.00 69 1038.7
20260831184023 91 167 0.0 2.0 0.00 0.00 0.00 69 1038.8
20260831183520 91 167 0.0 1.0 0.00 0.00 0.00 69 1038.8
20260831183017 91 167 0.0 2.0 0.00 0.00 0.00 69 1039.0
20260831182534 90 167 0.0 2.0 0.00 0.00 0.00 69 1038.9
20260831182032 90 167 0.0 1.0 0.00 0.00 0.00 69 1039.0
20260831181528 90 167 0.0 2.0 0.00 0.00 0.00 70 1039.1
20260831181025 89 167 0.0 1.0 0.00 0.00 0.00 71 1039.0
20260831180543 89 0.0 0.0 0.00 0.00 0.00 69 1039.0
20260831180020 89 167 0.0 2.0 0.00 0.00 0.00 70 1039.1
20260831175518 89 167 0.0 3.0 0.00 0.00 0.00 71 1039.2
20260831175035 89 167 0.0 2.0 0.00 0.00 0.00 71 1039.3
20260831174532 88 166 0.0 2.0 0.00 0.00 0.00 72 1039.4
20260831174027 88 0.0 0.0 0.00 0.00 0.00 72 1039.4
20260831173525 88 166 0.0 1.0 0.00 0.00 0.00 73 1039.4
20260831173022 88 166 0.0 1.0 0.00 0.00 0.00 73 1039.5
20260831172519 87 167 0.0 1.0 0.00 0.00 0.00 73 1039.6
20260831172016 87 166 0.0 1.0 0.00 0.00 0.00 74 1039.6
20260831171533 87 167 0.0 1.0 0.00 0.00 0.00 73 1039.5
20260831171029 87 0.0 0.0 0.00 0.00 0.00 75 1039.6
20260831170526 86 0.0 0.0 0.00 0.00 0.00 75 1039.6
20260831170023 86 167 0.0 2.0 0.00 0.00 0.00 75 1039.7
20260831165520 86 167 0.0 1.0 0.00 0.00 0.00 75 1039.6
20260831165037 85 0.0 0.0 0.00 0.00 0.00 76 1039.7
20260831164555 85 0.0 0.0 0.00 0.00 0.00 75 1039.7
20260831164031 85 0.0 0.0 0.00 0.00 0.00 75 1039.8
20260831163528 84 0.0 0.0 0.00 0.00 0.00 74 1039.6
20260831163025 84 0.0 0.0 0.00 0.00 0.00 75 1039.6
20260831162522 84 0.0 0.0 0.00 0.00 0.00 75 1039.5
20260831162019 84 0.0 0.0 0.00 0.00 0.00 76 1039.5
20260831161537 83 0.0 0.0 0.00 0.00 0.00 77 1039.5
20260831161034 83 0.0 0.0 0.00 0.00 0.00 77 1039.5
20260831160551 82 0.0 0.0 0.00 0.00 0.00 78 1039.5
20260831160027 82 0.0 0.0 0.00 0.00 0.00 78 1039.6
20260831155524 81 0.0 0.0 0.00 0.00 0.00 79 1039.5
20260831155021 81 0.0 0.0 0.00 0.00 0.00 79 1039.3
20260831154518 81 0.0 0.0 0.00 0.00 0.00 79 1039.4
20260831154016 80 0.0 0.0 0.00 0.00 0.00 81 1039.4
20260831153553 80 0.0 0.0 0.00 0.00 0.00 80 1039.4
20260831153029 80 0.0 0.0 0.00 0.00 0.00 81 1039.4
20260831152706 79 0.0 0.0 0.00 0.00 0.00 81 1039.4
20260831152023 79 0.0 0.0 0.00 0.00 0.00 81 1039.3
20260831151520 79 0.0 0.0 0.00 0.00 0.00 81 1039.3
20260831151018 79 0.0 0.0 0.00 0.00 0.00 81 1039.3
20260831150515 79 0.0 0.0 0.00 0.00 0.00 81 1039.1
20260831150033 79 0.0 0.0 0.00 0.00 0.00 82 1039.1
20260831145528 79 0.0 0.0 0.00 0.00 0.00 83 1039.0
20260831145025 78 0.0 0.0 0.00 0.00 0.00 84 1038.9
20260831144522 78 0.0 0.0 0.00 0.00 0.00 84 1038.8
20260831144059 77 0.0 0.0 0.00 0.00 0.00 85 1038.8
20260831143517 77 0.0 0.0 0.00 0.00 0.00 85 1038.8
20260831143034 77 0.0 0.0 0.00 0.00 0.00 86 1038.7
20260831142529 76 0.0 0.0 0.00 0.00 0.00 86 1038.6
20260831142046 76 0.0 0.0 0.00 0.00 0.00 87 1038.6
20260831141524 76 0.0 0.0 0.00 0.00 0.00 87 1038.6
20260831141021 75 0.0 0.0 0.00 0.00 0.00 88 1038.5
20260831140518 75 0.0 0.0 0.00 0.00 0.00 89 1038.5
20260831140015 74 0.0 0.0 0.00 0.00 0.00 90 1038.5
20260831135533 74 0.0 0.0 0.00 0.00 0.00 90 1038.5
20260831135028 73 0.0 0.0 0.00 0.00 0.00 90 1038.5
20260831134525 72 0.0 0.0 0.00 0.00 0.00 91 1038.5
20260831134023 72 0.0 0.0 0.00 0.00 0.00 91 1038.6
20260831133520 71 0.0 0.0 0.00 0.00 0.00 91 1038.5
20260831133017 70 0.0 0.0 0.00 0.00 0.00 91 1038.6
20260831132534 70 0.0 0.0 0.00 0.00 0.00 91 1038.5
20260831132030 69 0.0 0.0 0.00 0.00 0.00 91 1038.5
20260831131527 69 0.0 0.0 0.00 0.00 0.00 90 1038.4
20260831131024 68 0.0 0.0 0.00 0.00 0.00 90 1038.4
20260831130521 68 0.0 0.0 0.00 0.00 0.00 90 1038.4
20260831130018 68 0.0 0.0 0.00 0.00 0.00 90 1038.2
20260831125535 68 0.0 0.0 0.00 0.00 0.00 90 1038.2
20260831125033 68 0.0 0.0 0.00 0.00 0.00 90 1038.3
20260831124528 68 0.0 0.0 0.00 0.00 0.00 90 1038.3
20260831124046 68 0.0 0.0 0.00 0.00 0.00 90 1038.1
20260831123543 68 0.0 0.0 0.00 0.00 0.00 90 1038.0
20260831123020 67 0.0 0.0 0.00 0.00 0.00 90 1038.2
20260831122537 67 0.0 0.0 0.00 0.00 0.00 90 1038.1
20260831122034 67 0.0 0.0 0.00 0.00 0.00 90 1038.0
20260831121531 67 0.0 0.0 0.00 0.00 0.00 89 1038.0
20260831121027 67 0.0 0.0 0.00 0.00 0.00 89 1037.8
20260831120524 67 0.0 0.0 0.00 0.00 0.00 89 1038.0
20260831120021 68 0.0 0.0 0.00 0.00 0.00 89 1037.9
20260831115518 68 0.0 0.0 0.00 0.00 0.00 89 1037.8
20260831115036 68 0.0 0.0 0.00 0.00 0.00 89 1037.8
20260831114533 68 0.0 0.0 0.00 0.00 0.00 89 1037.7
20260831114048 68 0.0 0.0 0.00 0.00 0.00 88 1037.7
20260831113525 69 0.0 0.0 0.00 0.00 0.00 88 1037.8
20260831113022 69 0.0 0.0 0.00 0.00 0.00 88 1037.8
20260831112519 70 0.0 0.0 0.00 0.00 0.00 88 1037.8
20260831112016 70 0.0 0.0 0.00 0.00 0.00 89 1037.8
20260831111534 70 0.0 0.0 0.00 0.00 0.00 89 1037.8
20260831111030 70 0.0 0.0 0.00 0.00 0.00 89 1037.8
20260831110526 70 0.0 0.0 0.00 0.00 0.00 89 1037.7
20260831110023 71 0.0 0.0 0.00 0.00 0.00 89 1037.9
20260831105521 71 0.0 0.0 0.00 0.00 0.00 89 1037.9
20260831105018 71 0.0 0.0 0.00 0.00 0.00 89 1037.7
20260831104536 71 0.0 0.0 0.00 0.00 0.00 89 1037.8
20260831104053 71 0.0 0.0 0.00 0.00 0.00 89 1037.7
20260831103528 71 0.0 0.0 0.00 0.00 0.00 89 1037.9
20260831103025 70 0.0 0.0 0.00 0.00 0.00 89 1037.9
20260831102522 70 0.0 0.0 0.00 0.00 0.00 89 1037.8
20260831102020 70 0.0 0.0 0.00 0.00 0.00 89 1037.8
20260831101536 70 0.0 0.0 0.00 0.00 0.00 89 1037.8
20260831101033 70 0.0 0.0 0.00 0.00 0.00 89 1037.7
20260831100550 70 0.0 0.0 0.00 0.00 0.00 89 1037.8
20260831100026 70 0.0 0.0 0.00 0.00 0.00 89 1037.9
20260831095523 70 0.0 0.0 0.00 0.00 0.00 89 1037.7
20260831095041 70 0.0 0.0 0.00 0.00 0.00 88 1037.7
20260831094519 70 0.0 0.0 0.00 0.00 0.00 88 1037.9
20260831094036 70 0.0 0.0 0.00 0.00 0.00 88 1037.9
20260831093533 71 0.0 0.0 0.00 0.00 0.00 88 1037.8
20260831093029 71 0.0 0.0 0.00 0.00 0.00 88 1038.0
20260831092546 71 0.0 0.0 0.00 0.00 0.00 88 1037.9
20260831092023 71 0.0 0.0 0.00 0.00 0.00 87 1037.9
20260831091520 71 0.0 0.0 0.00 0.00 0.00 87 1037.9
20260831091037 71 0.0 0.0 0.00 0.00 0.00 87 1037.9
20260831090535 71 0.0 0.0 0.00 0.00 0.00 87 1037.8
20260831090031 71 0.0 0.0 0.00 0.00 0.00 87 1037.9
20260831085527 72 0.0 0.0 0.00 0.00 0.00 87 1038.0
20260831085024 72 167 0.0 1.0 0.00 0.00 0.00 87 1037.9
20260831084521 72 0.0 0.0 0.00 0.00 0.00 87 1038.0
20260831084018 72 0.0 0.0 0.00 0.00 0.00 87 1037.9
20260831083515 72 0.0 0.0 0.00 0.00 0.00 87 1038.0
20260831083032 72 0.0 0.0 0.00 0.00 0.00 87 1037.9
20260831082528 72 167 0.0 1.0 0.00 0.00 0.00 87 1037.9
20260831082025 72 0.0 0.0 0.00 0.00 0.00 87 1037.9
20260831081522 72 168 0.0 1.0 0.00 0.00 0.00 87 1038.0
20260831081019 72 0.0 0.0 0.00 0.00 0.00 87 1037.9
20260831080516 72 0.0 0.0 0.00 0.00 0.00 87 1038.1
20260831080034 72 0.0 0.0 0.00 0.00 0.00 87 1038.0
20260831075531 72 0.0 0.0 0.00 0.00 0.00 87 1038.1
20260831075027 72 168 0.0 1.0 0.00 0.00 0.00 87 1038.2
20260831074524 72 0.0 0.0 0.00 0.00 0.00 87 1038.1
20260831074021 72 0.0 0.0 0.00 0.00 0.00 87 1038.1
20260831073519 72 0.0 0.0 0.00 0.00 0.00 87 1038.0
20260831073015 72 0.0 0.0 0.00 0.00 0.00 87 1038.0
20260831072533 72 0.0 0.0 0.00 0.00 0.00 86 1038.2
20260831072029 72 0.0 0.0 0.00 0.00 0.00 86 1038.1
20260831071525 72 0.0 0.0 0.00 0.00 0.00 86 1038.2
20260831071022 72 0.0 0.0 0.00 0.00 0.00 86 1038.2
20260831070539 72 0.0 0.0 0.00 0.00 0.00 86 1038.4
20260831070017 72 0.0 0.0 0.00 0.00 0.00 86 1038.4
20260831065535 72 0.0 0.0 0.00 0.00 0.00 86 1038.4
20260831065031 72 0.0 0.0 0.00 0.00 0.00 86 1038.3
20260831064547 72 0.0 0.0 0.00 0.00 0.00 86 1038.3
20260831064024 72 0.0 0.0 0.00 0.00 0.00 85 1038.4
20260831063521 72 0.0 0.0 0.00 0.00 0.00 85 1038.5
20260831063019 72 0.0 0.0 0.00 0.00 0.00 85 1038.6
20260831062516 72 0.0 0.0 0.00 0.00 0.00 85 1038.7
20260831062033 72 0.0 0.0 0.00 0.00 0.00 85 1038.8
20260831061530 73 0.0 0.0 0.00 0.00 0.00 85 1038.8
20260831061026 73 0.0 0.0 0.00 0.00 0.00 84 1038.8
20260831060524 73 0.0 0.0 0.00 0.00 0.00 84 1038.9
20260831060020 73 0.0 0.0 0.00 0.00 0.00 84 1039.0
20260831055517 73 0.0 0.0 0.00 0.00 0.00 84 1039.0
20260831055055 73 0.0 0.0 0.00 0.00 0.00 84 1039.1
20260831054532 73 0.0 0.0 0.00 0.00 0.00 84 1039.3
20260831054027 73 0.0 0.0 0.00 0.00 0.00 84 1039.2
20260831053525 73 0.0 0.0 0.00 0.00 0.00 84 1039.1
20260831053022 73 0.0 0.0 0.00 0.00 0.00 83 1039.2
20260831052519 74 168 0.0 1.0 0.00 0.00 0.00 83 1039.2
20260831052056 74 165 0.0 2.0 0.00 0.00 0.00 83 1039.2
20260831051534 74 147 0.0 2.0 0.00 0.00 0.00 82 1039.1
20260831051031 74 162 1.0 4.0 0.00 0.00 0.00 82 1039.1
20260831050527 74 145 1.0 6.0 0.00 0.00 0.00 82 1039.2
20260831050024 74 168 1.0 2.0 0.00 0.00 0.00 82 1039.2
20260831045521 74 168 1.0 3.0 0.00 0.00 0.00 82 1039.2
20260831045018 74 163 2.0 4.0 0.00 0.00 0.00 82 1039.3
20260831044535 74 182 1.0 3.0 0.00 0.00 0.00 82 1039.2
20260831044052 74 163 2.0 3.0 0.00 0.00 0.00 83 1039.3
20260831043528 74 146 2.0 6.0 0.00 0.00 0.00 83 1039.3
20260831043025 74 165 1.0 7.0 0.00 0.00 0.00 83 1039.4
20260831042523 74 166 1.0 3.0 0.00 0.00 0.00 83 1039.3
20260831042020 73 166 1.0 3.0 0.00 0.00 0.00 84 1039.4
20260831041517 73 168 1.0 2.0 0.00 0.00 0.00 84 1039.3
20260831041054 73 168 1.0 3.0 0.00 0.00 0.00 84 1039.5
20260831040532 73 163 1.0 4.0 0.00 0.00 0.00 84 1039.5
20260831040027 73 145 1.0 3.0 0.00 0.00 0.00 84 1039.4
20260831035525 73 155 1.0 2.0 0.00 0.00 0.00 85 1039.6
20260831035022 73 142 0.0 2.0 0.00 0.00 0.00 85 1039.5
20260831034538 73 151 1.0 3.0 0.00 0.00 0.00 85 1039.7
20260831034015 73 145 1.0 3.0 0.00 0.00 0.00 85 1039.7
20260831033533 73 139 0.0 1.0 0.00 0.00 0.00 85 1039.8
20260831033048 73 133 0.0 2.0 0.00 0.00 0.00 85 1039.9
20260831032526 72 133 1.0 3.0 0.00 0.00 0.00 86 1040.0
20260831032023 72 132 0.0 2.0 0.00 0.00 0.00 86 1039.9
20260831031520 72 162 0.0 2.0 0.00 0.00 0.00 87 1039.9
20260831031017 72 162 0.0 3.0 0.00 0.00 0.00 87 1039.9
20260831030534 72 162 0.0 3.0 0.00 0.00 0.00 87 1040.0
20260831030031 72 0.0 0.0 0.00 0.00 0.00 88 1040.0
20260831025527 71 0.0 0.0 0.00 0.00 0.00 88 1040.2
20260831025025 71 0.0 0.0 0.00 0.00 0.00 88 1040.1
20260831024523 71 0.0 0.0 0.00 0.00 0.00 88 1040.2
20260831024020 71 163 0.0 1.0 0.00 0.00 0.00 88 1040.2
20260831023557 71 0.0 0.0 0.00 0.00 0.00 88 1040.2
20260831023054 71 0.0 0.0 0.00 0.00 0.00 88 1040.4
20260831022530 71 163 0.0 1.0 0.00 0.00 0.00 88 1040.4
20260831022026 71 163 0.0 3.0 0.00 0.00 0.00 88 1040.4
20260831021524 71 0.0 0.0 0.00 0.00 0.00 88 1040.4
20260831021021 71 163 0.0 3.0 0.00 0.00 0.00 87 1040.3
20260831020518 72 163 0.0 2.0 0.00 0.00 0.00 87 1040.3
20260831020035 72 163 0.0 2.0 0.00 0.00 0.00 87 1040.4
20260831015531 72 163 0.0 1.0 0.00 0.00 0.00 86 1040.4
20260831015027 72 0.0 0.0 0.00 0.00 0.00 86 1040.4
20260831014524 72 0.0 0.0 0.00 0.00 0.00 86 1040.3
20260831014042 72 142 0.0 1.0 0.00 0.00 0.00 85 1040.3
20260831013519 73 0.0 0.0 0.00 0.00 0.00 85 1040.4
20260831013017 73 0.0 0.0 0.00 0.00 0.00 85 1040.2
20260831012634 73 0.0 0.0 0.00 0.00 0.00 84 1040.1
20260831012051 73 0.0 0.0 0.00 0.00 0.00 84 1040.0
20260831011527 74 0.0 0.0 0.00 0.00 0.00 84 1039.9
20260831011045 74 0.0 0.0 0.00 0.00 0.00 84 1040.0
20260831010543 74 0.0 0.0 0.00 0.00 0.00 84 1040.0
20260831010020 74 0.0 0.0 0.00 0.00 0.00 84 1039.9
20260831005518 74 0.0 0.0 0.00 0.00 0.00 84 1039.8
20260831005055 74 0.0 0.0 0.00 0.00 0.00 84 1039.9
20260831004532 74 0.0 0.0 0.00 0.00 0.00 84 1039.9
20260831004028 74 0.0 0.0 0.00 0.00 0.00 84 1039.8
20260831003606 75 0.0 0.0 0.00 0.00 0.00 84 1039.7
20260831003023 75 0.0 0.0 0.00 0.00 0.00 84 1039.8
20260831002521 75 142 0.0 1.0 0.00 0.00 0.00 84 1039.7
20260831002018 75 0.0 0.0 0.00 0.00 0.00 84 1039.7
20260831001515 75 0.0 0.0 0.00 0.00 0.00 84 1039.7
20260831001032 75 0.0 0.0 0.00 0.00 0.00 84 1039.5
20260831000527 75 0.0 0.0 0.00 0.00 0.00 83 1039.4
20260831000025 76 0.0 0.0 0.00 0.00 0.00 83 1039.4
20260830235522 76 0.0 0.0 0.00 0.00 0.00 83 1039.3
20260830235020 76 0.0 0.0 0.00 0.00 0.00 83 1039.2
20260830234537 76 0.0 0.0 0.00 0.00 0.00 83 1038.9
20260830234034 76 0.0 0.0 0.00 0.00 0.00 82 1038.8
20260830233551 76 0.0 0.0 0.00 0.00 0.00 81 1038.7
20260830233027 77 142 0.0 1.0 0.00 0.00 0.00 81 1038.9
20260830232524 77 142 0.0 1.0 0.00 0.00 0.00 81 1038.9
20260830232021 77 140 0.0 1.0 0.00 0.00 0.00 80 1039.0
20260830231518 77 137 0.0 1.0 0.00 0.00 0.00 80 1039.0
20260830231015 78 137 0.0 1.0 0.00 0.00 0.00 79 1039.0
20260830230553 78 0.0 0.0 0.00 0.00 0.00 79 1038.9
20260830230049 79 137 0.0 1.0 0.00 0.00 0.00 79 1038.9
20260830225525 79 137 0.0 3.0 0.00 0.00 0.00 78 1038.8
20260830225022 79 137 1.0 2.0 0.00 0.00 0.00 78 1039.0
20260830224519 79 137 0.0 1.0 0.00 0.00 0.00 77 1039.0
20260830224017 80 0.0 0.0 0.00 0.00 0.00 77 1038.9
20260830223534 80 136 0.0 2.0 0.00 0.00 0.00 76 1038.7
20260830223031 80 127 2.0 4.0 0.00 0.00 0.00 77 1038.7
20260830222526 80 163 1.0 3.0 0.00 0.00 0.00 77 1038.8
20260830222023 80 130 1.0 2.0 0.00 0.00 0.00 77 1038.8
20260830221540 80 130 0.0 1.0 0.00 0.00 0.00 77 1038.9
20260830221017 80 130 1.0 2.0 0.00 0.00 0.00 76 1038.9
20260830220535 80 124 1.0 3.0 0.00 0.00 0.00 76 1038.9
20260830220032 81 113 1.0 2.0 0.00 0.00 0.00 76 1038.9
20260830215528 81 99 1.0 3.0 0.00 0.00 0.00 77 1038.7
20260830215025 81 67 0.0 1.0 0.00 0.00 0.00 76 1038.5